Weather in Berezino

Belarus     53°50′04″N   28°59′39″E
temp.,
°C
wind,
m/s
gust,
m/s
humid.,
%
clouds,
%
prec.,
mm/h
press.,
hPa
HPBL,
m
6 december, mon
mon600:00−4ese2495100 0.0 101483
03:00−3se2594100 0.0 1014147
06:00−2se2698100 0.3 1013237
09:00−2ese3695100 0.3 1014238
12:00−1se3791100 0.1 1014425
15:00−1se3488100 0.3 1013471
18:00−1e259798 0.1 1013247
21:00−1ene2397100 0.2 1012129
7 december, tue
tue700:00−2ene2398100 0.1 101189
03:00−2n2398100 1.5 1010152
06:00−2n3597100 1.8 1009218
09:00−4nnw3698100 1.8 1010121
12:00−3nnw3695100 0.0 1011299
15:00−3nnw4792100 0.0 1012357
18:00−6nnw489582 0.0 1014285
21:00−8n489485 0.0 1015278
8 december, wed
wed800:00−8n499294 0.0 1016284
03:00−10n499328 0.0 1018260
06:00−11nne49927 0.0 1019262
09:00−11nne4109123 0.0 1019276
12:00−9ne510835 0.0 1020331
15:00−8nne5127992 0.0 1019383
18:00−10nne513845 0.0 1019350
21:00−10ne51383100 0.0 1019335
9 december, thu
thu900:00−9ne51381100 0.0 1019346
03:00−9ne51379100 0.0 1018354
06:00−9ne5128184 0.0 1018335
09:00−9ne5128993 0.0 1018342
12:00−7ne51090100 0.1 1018356
15:00−5ne41095100 0.8 1017344
18:00−4ene41093100 0.3 1017374
21:00−4ene3896100 0.5 1017313
10 december, fri
fri1000:00−3e3896100 0.6 1016285
03:00−2e4898100 0.7 1016253
06:00−1e4998100 0.1 1015274
09:00+1ese41198100 0.1 1014358
12:00+2ese512100100 0.0 1014408
15:00+2ese61399100 0.0 1012488
18:00+2ese71598100 0.1 1011508
21:00+2ese71598100 0.7 1010546